Time,TemperatureF,DewpointF,PressureIn,WindDirection,WindDirectionDegrees,WindSpeedMPH,WindSpeedGustMPH,Humidity,HourlyPrecipIn,Conditions,Clouds,dailyrainin,SoftwareType,DateUTC
2013-02-07 06:00:00,23.3,13.3,30.45,NE,45,2.0,0.0,65,0.00,,CLR,0.00,VWS V14.01,2013-02-07 11:00:00,
2013-02-07 06:20:00,23.6,14.6,30.45,NE,41,2.0,0.0,68,0.00,,CLR,0.00,VWS V14.01,2013-02-07 11:20:00,
2013-02-07 06:25:00,23.9,14.9,30.45,NE,41,2.0,0.0,68,0.00,,CLR,0.00,VWS V14.01,2013-02-07 11:25:00,
2013-02-07 06:30:00,23.9,14.9,30.45,NE,41,2.0,0.0,68,0.00,,CLR,0.00,VWS V14.01,2013-02-07 11:30:00,
2013-02-07 06:35:00,23.9,14.6,30.45,NE,41,2.0,0.0,67,0.00,,CLR,0.00,VWS V14.01,2013-02-07 11:35:00,
2013-02-07 06:40:00,23.9,14.6,30.45,NE,41,2.0,0.0,67,0.00,,CLR,0.00,VWS V14.01,2013-02-07 11:40:00,
2013-02-07 06:45:00,23.9,14.9,30.46,NE,41,2.0,0.0,68,0.00,,CLR,0.00,VWS V14.01,2013-02-07 11:45:00,
2013-02-07 06:50:00,24.0,14.6,30.47,NE,41,2.0,0.0,67,0.00,,CLR,0.00,VWS V14.01,2013-02-07 11:50:00,
2013-02-07 06:55:00,24.1,14.7,30.47,NE,41,2.0,0.0,67,0.00,,CLR,0.00,VWS V14.01,2013-02-07 11:55:00,
2013-02-07 07:00:00,24.2,14.5,30.48,NE,41,2.0,0.0,66,0.00,,CLR,0.00,VWS V14.01,2013-02-07 12:00:00,
2013-02-07 07:06:00,24.4,14.7,30.48,NE,41,2.0,0.0,66,0.00,,CLR,0.00,VWS V14.01,2013-02-07 12:06:00,
2013-02-07 07:11:00,24.6,14.9,30.48,NE,41,2.0,0.0,66,0.00,,CLR,0.00,VWS V14.01,2013-02-07 12:11:00,
2013-02-07 07:16:00,25.0,13.8,30.48,NE,38,2.0,0.0,62,0.00,,CLR,0.00,VWS V14.01,2013-02-07 12:16:00,
2013-02-07 07:21:00,25.2,13.6,30.49,NE,38,2.0,0.0,61,0.00,,CLR,0.00,VWS V14.01,2013-02-07 12:21:00,
2013-02-07 07:26:00,25.4,13.5,30.49,NE,38,2.0,0.0,60,0.00,,CLR,0.00,VWS V14.01,2013-02-07 12:26:00,
2013-02-07 07:31:00,25.4,13.5,30.49,NE,38,2.0,0.0,60,0.00,,CLR,0.00,VWS V14.01,2013-02-07 12:31:00,
2013-02-07 07:36:00,25.5,13.6,30.50,NE,38,2.0,0.0,60,0.00,,CLR,0.00,VWS V14.01,2013-02-07 12:36:00,
2013-02-07 07:41:00,25.6,12.9,30.50,NE,38,2.0,0.0,58,0.00,,CLR,0.00,VWS V14.01,2013-02-07 12:41:00,
2013-02-07 07:46:00,25.7,13.4,30.51,NE,38,2.0,0.0,59,0.00,,CLR,0.00,VWS V14.01,2013-02-07 12:46:00,
2013-02-07 07:51:00,25.9,13.6,30.51,NE,38,2.0,0.0,59,0.00,,CLR,0.00,VWS V14.01,2013-02-07 12:51:00,
2013-02-07 07:56:00,25.9,13.9,30.51,NE,38,2.0,0.0,60,0.00,,CLR,0.00,VWS V14.01,2013-02-07 12:56:00,
2013-02-07 08:01:00,26.0,13.6,30.51,NE,38,2.0,0.0,59,0.00,,CLR,0.00,VWS V14.01,2013-02-07 13:01:00,
2013-02-07 08:06:00,26.3,13.6,30.51,NE,38,2.0,2.0,58,0.00,,CLR,0.00,VWS V14.01,2013-02-07 13:06:00,
2013-02-07 08:11:00,26.6,13.4,30.51,NE,38,2.0,4.0,57,0.00,,CLR,0.00,VWS V14.01,2013-02-07 13:11:00,
2013-02-07 08:17:00,26.8,13.2,30.52,NE,38,2.0,2.0,56,0.00,,CLR,0.00,VWS V14.01,2013-02-07 13:17:00,
2013-02-07 08:22:00,27.0,13.4,30.51,NE,38,2.0,2.0,56,0.00,,CLR,0.00,VWS V14.01,2013-02-07 13:22:00,
2013-02-07 08:27:00,27.2,13.6,30.51,NE,38,2.0,4.0,56,0.00,,CLR,0.00,VWS V14.01,2013-02-07 13:27:00,
2013-02-07 08:32:00,27.4,13.4,30.51,NE,38,2.0,4.0,55,0.00,,CLR,0.00,VWS V14.01,2013-02-07 13:32:00,
2013-02-07 08:37:00,27.5,12.6,30.52,NNE,33,2.0,4.0,53,0.00,,CLR,0.00,VWS V14.01,2013-02-07 13:37:00,
2013-02-07 08:42:00,27.6,12.7,30.52,NE,34,2.0,4.0,53,0.00,,CLR,0.00,VWS V14.01,2013-02-07 13:42:00,
2013-02-07 08:47:00,27.7,12.8,30.52,NE,34,2.0,0.0,53,0.00,,CLR,0.00,VWS V14.01,2013-02-07 13:47:00,
2013-02-07 08:52:00,27.8,12.9,30.52,NE,34,2.0,4.0,53,0.00,,CLR,0.00,VWS V14.01,2013-02-07 13:52:00,
2013-02-07 08:57:00,27.9,13.8,30.52,NE,34,2.0,4.0,55,0.00,,CLR,0.00,VWS V14.01,2013-02-07 13:57:00,
2013-02-07 09:02:00,28.0,13.1,30.52,NE,34,2.0,2.0,53,0.00,,CLR,0.00,VWS V14.01,2013-02-07 14:02:00,
2013-02-07 09:07:00,28.2,13.3,30.51,NE,34,2.0,2.0,53,0.00,,CLR,0.00,VWS V14.01,2013-02-07 14:07:00,
2013-02-07 09:12:00,28.2,12.9,30.51,NE,34,2.0,4.0,52,0.00,,CLR,0.00,VWS V14.01,2013-02-07 14:12:00,
2013-02-07 09:17:00,28.3,13.4,30.51,NE,34,2.0,2.0,53,0.00,,CLR,0.00,VWS V14.01,2013-02-07 14:17:00,
2013-02-07 09:22:00,28.4,13.5,30.51,NE,34,2.0,2.0,53,0.00,,CLR,0.00,VWS V14.01,2013-02-07 14:22:00,
2013-02-07 09:28:00,28.7,13.8,30.51,NNE,33,2.0,2.0,53,0.00,,CLR,0.00,VWS V14.01,2013-02-07 14:28:00,
2013-02-07 09:33:00,28.8,13.8,30.51,NE,34,2.0,2.0,53,0.00,,CLR,0.00,VWS V14.01,2013-02-07 14:33:00,
2013-02-07 09:38:00,28.9,13.9,30.51,NE,34,5.0,5.0,53,0.00,,CLR,0.00,VWS V14.01,2013-02-07 14:38:00,
2013-02-07 09:43:00,29.0,14.4,30.51,NNE,33,2.0,4.0,54,0.00,,CLR,0.00,VWS V14.01,2013-02-07 14:43:00,
2013-02-07 09:48:00,29.2,14.2,30.51,NE,34,2.0,2.0,53,0.00,,CLR,0.00,VWS V14.01,2013-02-07 14:48:00,
2013-02-07 09:53:00,29.3,14.7,30.51,NE,34,2.0,4.0,54,0.00,,CLR,0.00,VWS V14.01,2013-02-07 14:53:00,
2013-02-07 09:58:00,29.4,14.8,30.51,NNE,33,5.0,5.0,54,0.00,,CLR,0.00,VWS V14.01,2013-02-07 14:58:00,
2013-02-07 10:03:00,29.6,15.0,30.52,NE,34,2.0,2.0,54,0.00,,CLR,0.00,VWS V14.01,2013-02-07 15:03:00,
2013-02-07 10:08:00,29.6,15.0,30.52,NE,34,2.0,4.0,54,0.00,,CLR,0.00,VWS V14.01,2013-02-07 15:08:00,
2013-02-07 10:13:00,29.8,14.8,30.53,NNE,30,2.0,6.0,53,0.00,,CLR,0.00,VWS V14.01,2013-02-07 15:13:00,
2013-02-07 10:18:00,29.9,14.9,30.53,NNE,30,2.0,4.0,53,0.00,,CLR,0.00,VWS V14.01,2013-02-07 15:18:00,
2013-02-07 10:23:00,30.0,14.5,30.53,NNE,21,2.0,6.0,52,0.00,,CLR,0.00,VWS V14.01,2013-02-07 15:23:00,
2013-02-07 10:28:00,30.2,14.3,30.53,NNE,21,2.0,6.0,51,0.00,,CLR,0.00,VWS V14.01,2013-02-07 15:28:00,
2013-02-07 10:33:00,30.3,14.4,30.53,NNE,21,2.0,4.0,51,0.00,,CLR,0.00,VWS V14.01,2013-02-07 15:33:00,
2013-02-07 10:38:00,30.5,14.5,30.53,NNE,21,2.0,4.0,51,0.00,,CLR,0.00,VWS V14.01,2013-02-07 15:38:00,
2013-02-07 10:43:00,30.8,14.4,30.53,NNE,21,2.0,4.0,50,0.00,,CLR,0.00,VWS V14.01,2013-02-07 15:43:00,
2013-02-07 10:48:00,31.0,14.1,30.53,NNE,21,2.0,4.0,49,0.00,,CLR,0.00,VWS V14.01,2013-02-07 15:48:00,
2013-02-07 10:54:00,31.0,14.1,30.53,North,5,2.0,8.0,49,0.00,,CLR,0.00,VWS V14.01,2013-02-07 15:54:00,
2013-02-07 10:59:00,31.2,14.3,30.53,NNE,29,5.0,8.0,49,0.00,,CLR,0.00,VWS V14.01,2013-02-07 15:59:00,
2013-02-07 11:04:00,31.1,13.7,30.53,NE,44,2.0,8.0,48,0.00,,CLR,0.00,VWS V14.01,2013-02-07 16:04:00,
2013-02-07 11:09:00,31.3,14.4,30.52,NE,44,2.0,8.0,49,0.00,,CLR,0.00,VWS V14.01,2013-02-07 16:09:00,
2013-02-07 11:14:00,31.2,13.8,30.52,ENE,61,2.0,8.0,48,0.00,,CLR,0.00,VWS V14.01,2013-02-07 16:14:00,
2013-02-07 11:19:00,31.3,13.9,30.52,ENE,61,2.0,4.0,48,0.00,,CLR,0.00,VWS V14.01,2013-02-07 16:19:00,
2013-02-07 11:24:00,31.3,14.4,30.51,ENE,61,5.0,6.0,49,0.00,,CLR,0.00,VWS V14.01,2013-02-07 16:24:00,
2013-02-07 11:29:00,31.4,14.0,30.50,ENE,61,2.0,6.0,48,0.00,,CLR,0.00,VWS V14.01,2013-02-07 16:29:00,
2013-02-07 11:34:00,31.4,14.5,30.50,ENE,60,2.0,6.0,49,0.00,,CLR,0.00,VWS V14.01,2013-02-07 16:34:00,
2013-02-07 11:39:00,31.6,14.2,30.50,ENE,67,2.0,6.0,48,0.00,,CLR,0.00,VWS V14.01,2013-02-07 16:39:00,
2013-02-07 11:44:00,32.0,14.1,30.50,ENE,64,2.0,6.0,47,0.00,,CLR,0.00,VWS V14.01,2013-02-07 16:44:00,
2013-02-07 11:50:00,32.1,13.7,30.50,ENE,61,2.0,4.0,46,0.00,,CLR,0.00,VWS V14.01,2013-02-07 16:50:00,
2013-02-07 11:55:00,32.2,13.8,30.50,ENE,62,2.0,4.0,46,0.00,,CLR,0.00,VWS V14.01,2013-02-07 16:55:00,
2013-02-07 12:00:00,32.1,13.2,30.50,ENE,71,2.0,8.0,45,0.00,,SCT110,0.00,VWS V14.01,2013-02-07 17:00:00,
2013-02-07 12:05:00,32.0,13.6,30.50,ENE,71,2.0,4.0,46,0.00,,SCT110,0.00,VWS V14.01,2013-02-07 17:05:00,
2013-02-07 12:10:00,32.2,13.3,30.50,ENE,71,2.0,4.0,45,0.00,,SCT110,0.00,VWS V14.01,2013-02-07 17:10:00,
2013-02-07 12:15:00,32.5,13.5,30.50,ENE,71,2.0,4.0,45,0.00,,SCT110,0.00,VWS V14.01,2013-02-07 17:15:00,
2013-02-07 12:20:00,32.5,13.5,30.49,ENE,71,5.0,6.0,45,0.00,,SCT110,0.00,VWS V14.01,2013-02-07 17:20:00,
2013-02-07 12:25:00,32.5,14.0,30.49,ENE,71,2.0,6.0,46,0.00,,SCT110,0.00,VWS V14.01,2013-02-07 17:25:00,
2013-02-07 12:30:00,32.6,14.1,30.49,ENE,71,2.0,6.0,46,0.00,,SCT110,0.00,VWS V14.01,2013-02-07 17:30:00,
2013-02-07 12:35:00,32.8,14.3,30.48,ENE,71,2.0,2.0,46,0.00,,SCT110,0.00,VWS V14.01,2013-02-07 17:35:00,
2013-02-07 12:40:00,32.7,14.2,30.48,ENE,71,8.0,8.0,46,0.00,,SCT110,0.00,VWS V14.01,2013-02-07 17:40:00,
2013-02-07 12:45:00,32.6,14.1,30.49,ENE,71,2.0,0.0,46,0.00,,SCT110,0.00,VWS V14.01,2013-02-07 17:45:00,
2013-02-07 12:50:00,32.8,13.8,30.48,ENE,71,2.0,2.0,45,0.00,,SCT110,0.00,VWS V14.01,2013-02-07 17:50:00,
2013-02-07 12:55:00,33.0,15.0,30.48,ENE,71,2.0,2.0,47,0.00,,SCT110,0.00,VWS V14.01,2013-02-07 17:55:00,
2013-02-07 13:00:00,33.2,15.2,30.48,ENE,71,2.0,0.0,47,0.00,,SCT110,0.00,VWS V14.01,2013-02-07 18:00:00,
2013-02-07 13:06:00,33.3,14.8,30.48,NE,53,2.0,6.0,46,0.00,,SCT110,0.00,VWS V14.01,2013-02-07 18:06:00,
2013-02-07 13:11:00,33.2,14.7,30.48,NE,53,2.0,6.0,46,0.00,,SCT110,0.00,VWS V14.01,2013-02-07 18:11:00,
2013-02-07 13:16:00,33.2,15.2,30.48,ENE,61,2.0,0.0,47,0.00,,SCT110,0.00,VWS V14.01,2013-02-07 18:16:00,
2013-02-07 13:21:00,33.3,14.8,30.48,ENE,61,2.0,2.0,46,0.00,,SCT110,0.00,VWS V14.01,2013-02-07 18:21:00,
2013-02-07 13:26:00,33.4,14.9,30.47,ENE,61,2.0,2.0,46,0.00,,SCT110,0.00,VWS V14.01,2013-02-07 18:26:00,
2013-02-07 13:31:00,33.3,14.8,30.47,ENE,61,2.0,2.0,46,0.00,,SCT110,0.00,VWS V14.01,2013-02-07 18:31:00,
2013-02-07 13:36:00,33.2,14.2,30.47,ENE,61,2.0,2.0,45,0.00,,SCT110,0.00,VWS V14.01,2013-02-07 18:36:00,
2013-02-07 13:41:00,33.2,14.7,30.47,ENE,64,5.0,5.0,46,0.00,,SCT110,0.00,VWS V14.01,2013-02-07 18:41:00,
2013-02-07 13:46:00,33.2,15.2,30.47,ENE,64,2.0,0.0,47,0.00,,SCT110,0.00,VWS V14.01,2013-02-07 18:46:00,
2013-02-07 13:51:00,33.3,14.8,30.47,ENE,64,2.0,2.0,46,0.00,,SCT110,0.00,VWS V14.01,2013-02-07 18:51:00,
2013-02-07 13:56:00,33.3,14.8,30.47,ENE,74,2.0,6.0,46,0.00,,CLR,0.00,VWS V14.01,2013-02-07 18:56:00,
2013-02-07 14:01:00,33.3,15.3,30.47,ENE,74,2.0,0.0,47,0.00,,CLR,0.00,VWS V14.01,2013-02-07 19:01:00,
2013-02-07 14:06:00,33.3,14.8,30.47,ENE,74,5.0,8.0,46,0.00,,CLR,0.00,VWS V14.01,2013-02-07 19:06:00,
2013-02-07 14:11:00,33.4,15.4,30.46,ENE,74,2.0,8.0,47,0.00,,CLR,0.00,VWS V14.01,2013-02-07 19:11:00,
2013-02-07 14:16:00,33.3,14.8,30.46,ENE,74,2.0,2.0,46,0.00,,CLR,0.00,VWS V14.01,2013-02-07 19:16:00,
2013-02-07 14:21:00,33.3,15.3,30.46,ENE,70,5.0,10.0,47,0.00,,CLR,0.00,VWS V14.01,2013-02-07 19:21:00,
2013-02-07 14:26:00,33.3,14.8,30.46,ENE,70,2.0,10.0,46,0.00,,CLR,0.00,VWS V14.01,2013-02-07 19:26:00,
2013-02-07 14:31:00,33.5,14.9,30.45,ENE,71,5.0,5.0,46,0.00,,CLR,0.00,VWS V14.01,2013-02-07 19:31:00,
2013-02-07 14:37:00,33.4,14.4,30.45,ENE,78,2.0,8.0,45,0.00,,CLR,0.00,VWS V14.01,2013-02-07 19:37:00,
2013-02-07 14:42:00,33.4,14.9,30.45,ENE,67,2.0,8.0,46,0.00,,CLR,0.00,VWS V14.01,2013-02-07 19:42:00,
2013-02-07 14:47:00,33.5,14.9,30.45,ENE,67,2.0,2.0,46,0.00,,CLR,0.00,VWS V14.01,2013-02-07 19:47:00,
2013-02-07 14:52:00,33.4,14.4,30.45,ENE,66,2.0,8.0,45,0.00,,CLR,0.00,VWS V14.01,2013-02-07 19:52:00,
2013-02-07 14:57:00,33.4,14.4,30.45,ENE,67,2.0,8.0,45,0.00,,CLR,0.00,VWS V14.01,2013-02-07 19:57:00,
2013-02-07 15:02:00,33.2,14.2,30.45,ENE,63,2.0,6.0,45,0.00,,CLR,0.00,VWS V14.01,2013-02-07 20:02:00,
2013-02-07 15:07:00,33.1,14.1,30.45,ENE,74,2.0,8.0,45,0.00,,CLR,0.00,VWS V14.01,2013-02-07 20:07:00,
2013-02-07 15:12:00,32.9,13.9,30.45,ENE,71,2.0,8.0,45,0.00,,CLR,0.00,VWS V14.01,2013-02-07 20:12:00,
2013-02-07 15:17:00,32.9,13.9,30.45,ENE,72,2.0,8.0,45,0.00,,CLR,0.00,VWS V14.01,2013-02-07 20:17:00,
2013-02-07 15:22:00,33.0,14.5,30.45,ENE,73,2.0,8.0,46,0.00,,CLR,0.00,VWS V14.01,2013-02-07 20:22:00,
2013-02-07 15:27:00,33.1,14.1,30.45,ENE,67,2.0,8.0,45,0.00,,CLR,0.00,VWS V14.01,2013-02-07 20:27:00,
2013-02-07 15:32:00,33.1,13.6,30.45,ENE,78,2.0,10.0,44,0.00,,CLR,0.00,VWS V14.01,2013-02-07 20:32:00,
2013-02-07 15:37:00,32.9,13.4,30.44,ENE,78,2.0,10.0,44,0.00,,CLR,0.00,VWS V14.01,2013-02-07 20:37:00,
2013-02-07 15:42:00,33.0,13.0,30.44,ENE,78,2.0,10.0,43,0.00,,CLR,0.00,VWS V14.01,2013-02-07 20:42:00,
2013-02-07 15:47:00,33.0,13.0,30.44,ENE,67,2.0,4.0,43,0.00,,CLR,0.00,VWS V14.01,2013-02-07 20:47:00,
2013-02-07 15:53:00,33.1,13.6,30.44,ENE,67,2.0,6.0,44,0.00,,CLR,0.00,VWS V14.01,2013-02-07 20:53:00,
2013-02-07 15:58:00,33.1,13.1,30.44,ENE,65,2.0,6.0,43,0.00,,BKN095,0.00,VWS V14.01,2013-02-07 20:58:00,
2013-02-07 16:03:00,33.0,13.0,30.44,East,79,2.0,6.0,43,0.00,,BKN095,0.00,VWS V14.01,2013-02-07 21:03:00,
2013-02-07 16:08:00,33.0,13.5,30.44,East,79,5.0,6.0,44,0.00,,BKN095,0.00,VWS V14.01,2013-02-07 21:08:00,
2013-02-07 16:13:00,33.0,13.0,30.44,East,80,5.0,6.0,43,0.00,,BKN095,0.00,VWS V14.01,2013-02-07 21:13:00,
2013-02-07 16:18:00,32.8,13.3,30.44,ENE,76,2.0,6.0,44,0.00,,BKN095,0.00,VWS V14.01,2013-02-07 21:18:00,
2013-02-07 16:23:00,32.6,13.6,30.44,East,81,2.0,10.0,45,0.00,,BKN095,0.00,VWS V14.01,2013-02-07 21:23:00,
2013-02-07 16:28:00,32.6,13.1,30.43,East,81,2.0,10.0,44,0.00,,BKN095,0.00,VWS V14.01,2013-02-07 21:28:00,
2013-02-07 16:33:00,32.5,13.0,30.43,East,82,2.0,6.0,44,0.00,,BKN095,0.00,VWS V14.01,2013-02-07 21:33:00,
2013-02-07 16:38:00,32.6,13.6,30.43,East,82,2.0,8.0,45,0.00,,BKN095,0.00,VWS V14.01,2013-02-07 21:38:00,
2013-02-07 16:43:00,32.5,13.0,30.43,East,82,2.0,8.0,44,0.00,,BKN095,0.00,VWS V14.01,2013-02-07 21:43:00,
2013-02-07 16:49:00,32.5,14.0,30.42,East,82,11.0,11.0,46,0.00,,BKN095,0.00,VWS V14.01,2013-02-07 21:49:00,
2013-02-07 16:54:00,32.4,12.9,30.42,East,82,8.0,10.0,44,0.00,,BKN095,0.00,VWS V14.01,2013-02-07 21:54:00,
2013-02-07 16:59:00,32.4,12.9,30.42,East,82,2.0,10.0,44,0.00,,OVC090,0.00,VWS V14.01,2013-02-07 21:59:00,
2013-02-07 17:04:00,32.4,13.4,30.42,ENE,59,2.0,8.0,45,0.00,,OVC090,0.00,VWS V14.01,2013-02-07 22:04:00,
2013-02-07 17:09:00,32.3,13.4,30.42,East,84,2.0,8.0,45,0.00,,OVC090,0.00,VWS V14.01,2013-02-07 22:09:00,
2013-02-07 17:14:00,32.3,12.8,30.42,East,80,2.0,8.0,44,0.00,,OVC090,0.00,VWS V14.01,2013-02-07 22:14:00,
2013-02-07 17:19:00,32.3,13.9,30.42,East,80,2.0,2.0,46,0.00,,OVC090,0.00,VWS V14.01,2013-02-07 22:19:00,
2013-02-07 17:24:00,32.3,13.9,30.43,East,80,8.0,8.0,46,0.00,,OVC090,0.00,VWS V14.01,2013-02-07 22:24:00,
2013-02-07 17:29:00,32.3,14.3,30.43,East,80,2.0,8.0,47,0.00,,OVC090,0.00,VWS V14.01,2013-02-07 22:29:00,
2013-02-07 17:34:00,32.3,14.3,30.43,East,79,5.0,5.0,47,0.00,,OVC090,0.00,VWS V14.01,2013-02-07 22:34:00,
2013-02-07 17:39:00,32.2,14.2,30.43,East,80,2.0,4.0,47,0.00,,OVC090,0.00,VWS V14.01,2013-02-07 22:39:00,
2013-02-07 17:44:00,32.1,14.6,30.43,East,80,2.0,4.0,48,0.00,,OVC090,0.00,VWS V14.01,2013-02-07 22:44:00,
2013-02-07 17:50:00,32.0,15.0,30.43,East,80,2.0,2.0,49,0.00,,OVC090,0.00,VWS V14.01,2013-02-07 22:50:00,
2013-02-07 17:55:00,31.8,14.8,30.43,East,80,2.0,4.0,49,0.00,,OVC090,0.00,VWS V14.01,2013-02-07 22:55:00,
2013-02-07 18:00:00,31.7,14.7,30.43,East,80,2.0,4.0,49,0.00,,BKN085,0.00,VWS V14.01,2013-02-07 23:00:00,
2013-02-07 18:05:00,31.6,15.1,30.43,East,81,2.0,8.0,50,0.00,,BKN085,0.00,VWS V14.01,2013-02-07 23:05:00,
2013-02-07 18:10:00,31.6,15.6,30.43,East,81,2.0,8.0,51,0.00,,BKN085,0.00,VWS V14.01,2013-02-07 23:10:00,
2013-02-07 18:15:00,31.5,15.9,30.43,East,80,2.0,8.0,52,0.00,,BKN085,0.00,VWS V14.01,2013-02-07 23:15:00,
2013-02-07 18:20:00,31.5,15.9,30.43,East,81,2.0,2.0,52,0.00,,BKN085,0.00,VWS V14.01,2013-02-07 23:20:00,
2013-02-07 18:25:00,31.4,16.3,30.43,East,81,2.0,2.0,53,0.00,,BKN085,0.00,VWS V14.01,2013-02-07 23:25:00,
2013-02-07 18:30:00,31.3,16.6,30.43,East,80,2.0,2.0,54,0.00,,BKN085,0.00,VWS V14.01,2013-02-07 23:30:00,
2013-02-07 18:35:00,31.3,16.6,30.43,East,80,2.0,4.0,54,0.00,,BKN085,0.00,VWS V14.01,2013-02-07 23:35:00,
2013-02-07 18:40:00,31.3,16.6,30.43,East,82,5.0,10.0,54,0.00,,BKN085,0.00,VWS V14.01,2013-02-07 23:40:00,
2013-02-07 18:45:00,31.4,17.1,30.44,ENE,76,2.0,0.0,55,0.00,,BKN085,0.00,VWS V14.01,2013-02-07 23:45:00,
2013-02-07 18:50:00,31.5,17.2,30.44,ENE,76,2.0,6.0,55,0.00,,BKN085,0.00,VWS V14.01,2013-02-07 23:50:00,
2013-02-07 18:56:00,31.5,17.6,30.44,ENE,76,2.0,6.0,56,0.00,,BKN110,0.00,VWS V14.01,2013-02-07 23:56:00,
2013-02-07 19:01:00,31.4,17.5,30.44,ENE,76,2.0,0.0,56,0.00,,BKN110,0.00,VWS V14.01,2013-02-08 00:01:00,
2013-02-07 19:06:00,31.4,17.9,30.44,ENE,76,11.0,11.0,57,0.00,,BKN110,0.00,VWS V14.01,2013-02-08 00:06:00,
2013-02-07 19:11:00,31.5,18.0,30.44,ENE,76,2.0,6.0,57,0.00,,BKN110,0.00,VWS V14.01,2013-02-08 00:11:00,
2013-02-07 19:16:00,31.5,18.4,30.45,ENE,76,2.0,0.0,58,0.00,,BKN110,0.00,VWS V14.01,2013-02-08 00:16:00,
2013-02-07 19:21:00,31.5,18.4,30.44,ENE,76,2.0,2.0,58,0.00,,BKN110,0.00,VWS V14.01,2013-02-08 00:21:00,
2013-02-07 19:26:00,31.4,18.7,30.44,ENE,76,2.0,4.0,59,0.00,,BKN110,0.00,VWS V14.01,2013-02-08 00:26:00,
2013-02-07 19:31:00,31.3,18.6,30.44,ENE,76,2.0,0.0,59,0.00,,BKN110,0.00,VWS V14.01,2013-02-08 00:31:00,
2013-02-07 19:36:00,31.4,19.1,30.44,ENE,76,2.0,2.0,60,0.00,,BKN110,0.00,VWS V14.01,2013-02-08 00:36:00,
2013-02-07 19:41:00,31.4,19.1,30.44,ENE,76,2.0,4.0,60,0.00,,BKN110,0.00,VWS V14.01,2013-02-08 00:41:00,
2013-02-07 19:46:00,31.3,19.4,30.44,ENE,76,2.0,2.0,61,0.00,,BKN110,0.00,VWS V14.01,2013-02-08 00:46:00,
2013-02-07 19:51:00,31.3,19.4,30.44,ENE,76,2.0,6.0,61,0.00,,BKN110,0.00,VWS V14.01,2013-02-08 00:51:00,
2013-02-07 19:56:00,31.3,19.4,30.44,ENE,76,2.0,6.0,61,0.00,,CLR,0.00,VWS V14.01,2013-02-08 00:56:00,
2013-02-07 20:01:00,31.2,19.7,30.44,ENE,76,2.0,0.0,62,0.00,,CLR,0.00,VWS V14.01,2013-02-08 01:01:00,
2013-02-07 20:07:00,31.0,19.9,30.43,ENE,76,2.0,0.0,63,0.00,,CLR,0.00,VWS V14.01,2013-02-08 01:07:00,
2013-02-07 20:12:00,30.8,19.7,30.43,ENE,76,2.0,0.0,63,0.00,,CLR,0.00,VWS V14.01,2013-02-08 01:12:00,
2013-02-07 20:17:00,30.6,19.9,30.43,ENE,76,2.0,0.0,64,0.00,,CLR,0.00,VWS V14.01,2013-02-08 01:17:00,
2013-02-07 20:22:00,30.5,19.8,30.43,ENE,76,2.0,0.0,64,0.00,,CLR,0.00,VWS V14.01,2013-02-08 01:22:00,
2013-02-07 20:27:00,30.4,19.7,30.43,ENE,76,2.0,0.0,64,0.00,,CLR,0.00,VWS V14.01,2013-02-08 01:27:00,
2013-02-07 20:32:00,30.3,20.0,30.42,ENE,76,2.0,0.0,65,0.00,,CLR,0.00,VWS V14.01,2013-02-08 01:32:00,
2013-02-07 20:37:00,30.2,19.9,30.42,ENE,76,2.0,0.0,65,0.00,,CLR,0.00,VWS V14.01,2013-02-08 01:37:00,
2013-02-07 20:42:00,30.1,19.8,30.42,ENE,76,2.0,0.0,65,0.00,,CLR,0.00,VWS V14.01,2013-02-08 01:42:00,
2013-02-07 20:47:00,30.2,19.9,30.42,ENE,76,2.0,0.0,65,0.00,,CLR,0.00,VWS V14.01,2013-02-08 01:47:00,
2013-02-07 20:52:00,30.2,19.9,30.42,ENE,76,2.0,0.0,65,0.00,,CLR,0.00,VWS V14.01,2013-02-08 01:52:00,
2013-02-07 20:57:00,30.2,19.9,30.42,ENE,76,2.0,0.0,65,0.00,,OVC100,0.00,VWS V14.01,2013-02-08 01:57:00,
2013-02-07 21:02:00,30.3,19.6,30.42,ENE,76,2.0,2.0,64,0.00,,OVC100,0.00,VWS V14.01,2013-02-08 02:02:00,
2013-02-07 21:07:00,30.4,20.1,30.42,ENE,76,2.0,2.0,65,0.00,,OVC100,0.00,VWS V14.01,2013-02-08 02:07:00,
2013-02-07 21:12:00,30.4,20.4,30.42,ENE,76,2.0,2.0,66,0.00,,OVC100,0.00,VWS V14.01,2013-02-08 02:12:00,
2013-02-07 21:17:00,30.5,20.5,30.42,ENE,76,2.0,0.0,66,0.00,,OVC100,0.00,VWS V14.01,2013-02-08 02:17:00,
2013-02-07 21:22:00,30.7,20.7,30.42,ENE,76,2.0,2.0,66,0.00,,OVC100,0.00,VWS V14.01,2013-02-08 02:22:00,
2013-02-07 21:27:00,30.7,20.7,30.42,ENE,76,2.0,2.0,66,0.00,,OVC100,0.00,VWS V14.01,2013-02-08 02:27:00,
2013-02-07 21:33:00,30.8,21.1,30.42,ENE,76,2.0,2.0,67,0.00,,OVC100,0.00,VWS V14.01,2013-02-08 02:33:00,
2013-02-07 21:38:00,31.0,21.3,30.41,ENE,76,2.0,2.0,67,0.00,,OVC100,0.00,VWS V14.01,2013-02-08 02:38:00,
2013-02-07 21:43:00,31.1,21.8,30.41,ENE,76,2.0,2.0,68,0.00,,OVC100,0.00,VWS V14.01,2013-02-08 02:43:00,
2013-02-07 21:48:00,31.1,21.4,30.41,ENE,76,2.0,4.0,67,0.00,,OVC100,0.00,VWS V14.01,2013-02-08 02:48:00,
2013-02-07 21:53:00,31.1,21.4,30.41,ENE,76,2.0,4.0,67,0.00,,OVC100,0.00,VWS V14.01,2013-02-08 02:53:00,
2013-02-07 21:58:00,31.1,21.8,30.41,ENE,76,2.0,4.0,68,0.00,,BKN110,0.00,VWS V14.01,2013-02-08 02:58:00,
2013-02-07 22:03:00,31.2,21.9,30.40,ENE,76,2.0,0.0,68,0.00,,BKN110,0.00,VWS V14.01,2013-02-08 03:03:00,
2013-02-07 22:08:00,31.3,22.3,30.40,ENE,76,2.0,2.0,69,0.00,,BKN110,0.00,VWS V14.01,2013-02-08 03:08:00,
2013-02-07 22:13:00,31.4,22.8,30.40,ENE,76,8.0,8.0,70,0.00,,BKN110,0.00,VWS V14.01,2013-02-08 03:13:00,
2013-02-07 22:18:00,31.6,23.0,30.40,ENE,76,2.0,2.0,70,0.00,,BKN110,0.00,VWS V14.01,2013-02-08 03:18:00,
2013-02-07 22:23:00,31.8,23.5,30.40,ENE,76,2.0,2.0,71,0.00,,BKN110,0.00,VWS V14.01,2013-02-08 03:23:00,
2013-02-07 22:28:00,32.0,23.7,30.39,ENE,76,2.0,2.0,71,0.00,,BKN110,0.00,VWS V14.01,2013-02-08 03:28:00,
2013-02-07 22:33:00,32.1,23.8,30.39,ENE,76,2.0,2.0,71,0.00,,BKN110,0.00,VWS V14.01,2013-02-08 03:33:00,
2013-02-07 22:38:00,32.3,24.0,30.39,ENE,76,2.0,4.0,71,0.00,,BKN110,0.00,VWS V14.01,2013-02-08 03:38:00,
2013-02-07 22:43:00,32.4,24.1,30.39,ENE,76,2.0,4.0,71,0.00,,BKN110,0.00,VWS V14.01,2013-02-08 03:43:00,
2013-02-07 22:48:00,32.5,24.5,30.39,ENE,76,2.0,0.0,72,0.00,,BKN110,0.00,VWS V14.01,2013-02-08 03:48:00,
2013-02-07 22:54:00,32.6,24.9,30.38,ENE,76,2.0,4.0,73,0.00,,BKN110,0.00,VWS V14.01,2013-02-08 03:54:00,
2013-02-07 22:59:00,32.7,25.0,30.38,ENE,76,2.0,4.0,73,0.00,,OVC043,0.00,VWS V14.01,2013-02-08 03:59:00,
2013-02-07 23:04:00,32.7,25.0,30.38,ENE,76,2.0,2.0,73,0.00,,OVC043,0.00,VWS V14.01,2013-02-08 04:04:00,
2013-02-07 23:09:00,32.8,25.1,30.37,ENE,76,2.0,2.0,73,0.00,,OVC043,0.00,VWS V14.01,2013-02-08 04:09:00,
2013-02-07 23:14:00,32.9,25.5,30.37,ENE,76,2.0,4.0,74,0.00,,OVC043,0.00,VWS V14.01,2013-02-08 04:14:00,
2013-02-07 23:19:00,33.1,26.0,30.36,ENE,76,2.0,8.0,75,0.00,,OVC043,0.00,VWS V14.01,2013-02-08 04:19:00,
2013-02-07 23:24:00,33.3,26.2,30.36,ENE,76,2.0,8.0,75,0.00,,OVC043,0.00,VWS V14.01,2013-02-08 04:24:00,
2013-02-07 23:29:00,33.5,26.4,30.36,ENE,76,2.0,8.0,75,0.00,,OVC043,0.00,VWS V14.01,2013-02-08 04:29:00,
2013-02-07 23:34:00,33.6,26.5,30.36,ENE,76,2.0,4.0,75,0.00,,OVC043,0.00,VWS V14.01,2013-02-08 04:34:00,
2013-02-07 23:39:00,33.6,26.5,30.35,ENE,76,2.0,4.0,75,0.00,,OVC043,0.00,VWS V14.01,2013-02-08 04:39:00,
2013-02-07 23:44:00,33.7,26.6,30.35,ENE,64,2.0,10.0,75,0.00,,OVC043,0.00,VWS V14.01,2013-02-08 04:44:00,
2013-02-07 23:49:00,33.8,26.7,30.35,ENE,64,2.0,4.0,75,0.00,,OVC043,0.00,VWS V14.01,2013-02-08 04:49:00,
2013-02-07 23:54:00,34.0,27.2,30.35,ENE,64,2.0,4.0,76,0.00,,OVC043,0.00,VWS V14.01,2013-02-08 04:54:00,
2013-02-07 23:59:00,34.1,27.3,30.35,ENE,75,2.0,8.0,76,0.00,,OVC026,0.00,VWS V14.01,2013-02-08 04:59:00,